Hourly Data Report for October 25, 2014

All times are specified in Local Standard Time (LST). Add 1 hour to adjust for Daylight Saving Time where and when it is observed.

POND INLET A
NUNAVUT

72°41'22.000" N
77°58'08.000" W
61.60 m
2403206
71095
YIO

Download Data

Hourly Data (October 2014)
Hourly Data Report for October 25, 2014
Temp Definition
°C
Dew Point Temp Definition
°C
Rel Hum Definition
%
Wind Dir Definition
10's deg

Wind Spd Definition
km/h
Visibility Definition
km
Stn Press Definition
kPa
Hmdx Definition


Wind Chill Definition


Weather Definition


TIME
00:00 Legend Double Dagger -12.7 -16.8 72 27 35 16.1 101.14   -24 LegendNANA
01:00 Legend Double Dagger -12.8 -17.8 67 28 32 16.1 101.18   -23 LegendNANA
02:00 Legend Double Dagger -12.8 -17.5 69 27 34 16.1 101.20   -24 LegendNANA
03:00 Legend Double Dagger -12.8 -17.2 70 27 30 16.1 101.26   -23 LegendNANA
04:00 Legend Double Dagger -12.8 -16.8 72 29 22 16.1 101.27   -22 LegendNANA
05:00 Legend Double Dagger -12.8 -16.9 72 28 24 16.1 101.28   -22 LegendNANA
06:00 Legend Double Dagger -12.7 -16.9 71 27 22 16.1 101.29   -22 LegendNANA
07:00 Legend Double Dagger -12.7 -16.7 73 26 18 16.1 101.32   -21 Snow
08:00 Legend Double Dagger -12.6 -16.2 75 24 13 14.5 101.33   -19 Snow
09:00 Legend Double Dagger -13.2 -16.0 80 16 13 16.1 101.34   -20 Snow
10:00 Legend Double Dagger -13.1 -16.2 78 17 13 12.9 101.35   -20 Snow
11:00 Legend Double Dagger -13.1 -16.2 78 18 17 16.1 101.35   -21 Snow
12:00 Legend Double Dagger -13.3 -16.5 77 17 17 16.1 101.34   -21 Snow
13:00 Legend Double Dagger -13.3 -16.3 78 17 18 16.1 101.37   -22 Snow
14:00 Legend Double Dagger -13.5 -16.6 78 17 21 16.1 101.39   -22 LegendNANA
15:00 Legend Double Dagger -13.9 -17.0 78 16 21 16.1 101.40   -23 Snow
16:00 Legend Double Dagger -13.5 -16.6 78 16 22 16.1 101.42   -23 LegendNANA
17:00 Legend Double Dagger -13.9 -16.8 79 15 18 16.1 101.42   -22 LegendNANA
18:00 Legend Double Dagger -13.7 -16.9 77 16 22 16.1 101.42   -23 LegendNANA
19:00 Legend Double Dagger -14.3 -17.2 79 15 22 16.1 101.42   -24 LegendNANA
20:00 Legend Double Dagger -14.2 -16.8 81 15 21 16.1 101.40   -23 LegendNANA
21:00 Legend Double Dagger -14.4 -17.0 81 16 21 16.1 101.38   -24 LegendNANA
22:00 Legend Double Dagger -13.9 -16.5 81 14 18 16.1 101.35   -22 LegendNANA
23:00 Legend Double Dagger -13.8 -16.2 82 15 17 16.1 101.33   -22 LegendNANA

Notes on Data Quality.

Legend

  • E = Estimated
  • M = Missing
  • NA = Not Available
  • ‡ = Partner data that is not subject to review by the National Climate Archives
Date modified: